Wind_Speed
83 84 86 86 87 88 90 91 92 92 90 88 90 91 92 91 90 90 90 89 88 87 87 85 84 83 82 81 79 77 76 74 73 72 70 69 67 66
86 87 88 88 89 89 90 90 91 92 91 87 88 89 91 90 89 89 89 88 88 87 87 86 85 84 83 82 81 80 78 77 75 74 72 70 68 67
88 88 88 88 88 88 87 87 87 87 87 82 81 83 84 84 83 83 83 84 84 83 83 83 83 83 82 81 81 80 79 78 76 74 72 71 69 68
87 87 86 84 83 81 80 79 78 77 77 74 71 72 74 74 75 74 74 75 76 76 76 77 78 78 79 79 79 78 78 77 76 74 73 71 70 69
84 82 80 77 75 73 71 70 69 69 69 67 64 64 65 66 67 67 66 67 67 68 69 70 72 73 74 75 75 76 75 75 74 74 73 71 71 70
78 75 71 69 67 65 64 63 63 63 63 62 59 58 58 59 61 61 61 62 62 63 64 65 66 67 68 69 70 71 71 71 72 71 71 71 70 69
69 66 64 62 61 60 59 58 58 58 58 57 55 54 53 54 55 56 57 58 59 59 60 61 62 63 64 65 65 66 67 68 69 69 70 70 69 68
63 61 59 58 56 56 56 55 55 54 54 53 52 50 49 50 51 52 53 54 55 56 58 58 59 59 61 62 62 63 64 65 66 66 67 67 68 67
58 56 54 53 52 52 51 50 50 50 51 51 49 47 47 47 49 50 50 50 50 52 54 54 55 55 56 58 59 60 61 62 63 64 65 66 66 66
53 52 50 48 48 47 47 46 46 47 48 48 47 46 45 45 46 47 47 48 47 48 49 49 50 50 51 53 55 57 59 60 61 61 62 64 65 65
50 48 47 46 45 45 45 44 44 44 45 45 45 44 43 43 43 43 43 44 44 44 46 46 48 50 51 51 51 54 56 57 58 59 60 61 63 64
46 45 45 44 44 44 44 44 43 43 43 42 42 42 41 41 41 41 41 42 42 42 43 45 47 49 49 50 52 53 54 55 57 58 59 61 62 63
44 43 43 43 43 43 43 43 42 42 41 39 39 38 39 39 39 40 40 41 41 42 42 44 46 48 49 49 51 52 53 54 55 56 57 58 60 61
44 43 42 42 42 42 42 41 41 40 39 38 37 37 37 38 38 39 39 40 41 41 42 43 44 46 47 48 49 51 52 53 53 54 55 56 57 58
43 42 41 41 41 40 40 40 39 39 38 38 37 37 37 37 37 38 39 39 40 40 41 42 43 44 46 47 48 48 50 51 52 53 54 55 55 56
41 40 39 39 39 38 37 37 37 37 38 38 37 37 37 38 39 39 39 39 39 39 39 40 41 42 43 44 46 47 47 48 49 51 52 53 54 55
39 38 37 37 36 36 36 36 36 36 36 36 36 36 37 37 38 38 38 38 39 38 38 38 39 40 41 43 44 45 46 47 48 50 51 52 52 53
38 37 36 35 35 35 35 35 35 35 35 35 35 35 35 35 35 35 36 36 37 37 37 37 38 39 39 40 41 43 44 46 47 48 49 50 51 51
37 35 35 35 35 35 35 35 35 35 35 34 34 33 33 33 33 33 34 35 35 36 36 37 37 38 38 39 40 42 43 45 46 47 48 49 50 50
35 35 34 34 34 34 34 34 34 34 33 33 32 32 31 31 31 32 33 33 34 35 36 36 37 37 38 39 40 41 43 44 45 46 47 48 48 49
34 33 33 33 33 33 32 32 31 31 31 30 30 30 29 30 30 30 31 32 33 34 35 35 36 37 38 38 38 38 40 43 44 44 45 46 46 47
32 32 32 31 31 31 31 31 30 30 29 28 28 27 27 28 29 29 30 30 31 32 33 34 35 36 36 37 37 37 38 40 41 42 43 44 45 45
31 31 30 30 30 30 30 30 29 28 28 27 27 27 28 28 28 29 29 29 30 31 32 33 34 35 35 36 36 36 37 38 40 40 41 42 43 43
Wind_Direction
291 290 289 288 286 285 284 283 281 280 277 276 274 272 270 268 267 265 264 262 261 260 259 258 258 257 257 257 258 258 258 259 260 260 261 261 260 260
293 292 290 289 287 286 285 283 281 280 278 276 274 273 271 268 267 266 265 263 261 260 259 257 257 256 256 256 256 256 257 257 258 258 259 259 259 259
294 292 291 290 288 286 285 284 282 281 280 278 275 273 272 270 268 266 265 263 262 260 259 257 256 255 254 254 254 255 255 256 256 257 257 257 258 257
295 293 292 290 289 287 286 285 284 283 282 281 277 275 273 271 269 267 266 264 262 260 259 257 256 254 253 253 253 253 253 254 254 255 255 256 256 256
296 295 293 291 290 288 287 285 284 284 283 282 280 276 274 272 270 268 266 265 262 260 258 257 255 253 252 252 252 252 252 252 253 253 254 254 255 256
297 296 294 292 290 289 287 286 286 285 285 284 283 279 276 273 271 269 266 264 262 259 257 256 254 253 252 251 251 251 251 251 251 252 252 253 254 254
297 295 293 291 290 289 288 287 286 286 285 285 283 280 277 274 271 269 267 264 261 259 257 255 254 252 251 250 250 249 249 250 250 250 251 252 253 253
297 295 293 291 290 289 288 287 287 286 286 284 283 280 277 274 271 269 268 265 263 260 257 254 253 252 250 249 248 248 248 248 248 248 249 250 251 251
297 296 294 292 291 290 288 287 287 287 286 285 283 280 277 274 272 270 268 266 263 260 258 255 254 252 251 249 248 247 247 247 247 248 248 249 249 250
299 297 295 293 292 291 290 288 288 288 287 285 284 281 278 275 273 271 269 266 264 262 259 257 255 253 252 250 248 247 247 248 248 248 248 248 249 250
299 298 297 295 293 292 291 290 289 289 287 285 284 282 279 277 274 272 269 267 264 261 259 258 255 254 252 251 250 248 248 248 248 248 249 249 250 251
300 299 297 295 294 292 292 291 291 290 287 285 283 281 279 277 275 272 270 268 265 262 259 258 257 255 254 252 250 250 249 249 249 249 250 250 250 251
301 299 298 296 294 293 293 292 291 290 287 284 282 280 278 277 275 272 270 269 267 265 261 258 257 256 255 253 252 251 251 250 250 250 250 250 250 251
303 301 299 296 295 294 294 293 291 290 288 285 282 280 278 276 274 273 271 270 269 267 264 260 258 256 255 254 253 251 251 251 251 250 250 250 250 251
304 303 301 299 297 295 294 293 292 291 289 287 284 282 279 276 274 273 272 271 270 268 266 263 261 258 257 256 254 252 252 251 251 251 251 251 251 251
303 303 303 302 300 298 296 294 293 292 290 288 285 283 280 277 275 273 271 270 269 268 266 265 263 260 258 256 255 254 252 252 251 251 251 251 251 251
304 304 303 303 302 301 299 297 295 293 292 290 287 285 282 279 276 273 270 269 269 267 266 264 263 261 259 257 256 254 253 253 252 252 252 252 252 252
307 306 305 304 303 302 301 299 297 295 294 292 290 287 285 281 278 274 272 270 269 268 266 265 263 261 260 259 257 256 255 254 254 254 254 254 252 252
309 308 307 306 305 304 303 301 298 297 295 293 291 289 287 284 280 277 274 272 270 268 267 265 264 262 261 260 258 257 257 256 256 256 256 255 254 253
311 310 309 309 308 307 306 304 302 299 297 295 292 290 288 285 283 280 277 274 272 270 268 266 265 263 262 261 260 259 259 259 258 258 257 256 254 253
312 312 312 311 311 311 310 309 307 305 302 299 295 293 290 288 286 283 280 278 275 273 270 267 265 264 263 263 262 261 261 260 260 259 258 256 255 254
314 313 314 314 314 314 314 312 310 308 305 302 299 296 293 291 289 287 285 281 278 276 273 269 267 265 265 265 264 262 260 260 261 260 259 258 256 254
314 315 315 317 318 318 317 316 314 311 309 305 302 299 297 295 293 290 288 285 282 279 276 272 269 267 266 266 265 263 262 261 262 262 261 260 258 255
Height
5613 5604 5596 5589 5581 5573 5566 5560 5554 5553 5557 5558 5550 5545 5542 5542 5540 5537 5539 5541 5543 5546 5549 5552 5556 5559 5563 5567 5571 5575 5579 5582 5585 5589 5592 5595 5599 5601
5588 5579 5570 5562 5553 5546 5538 5531 5524 5519 5521 5531 5522 5515 5510 5512 5511 5509 5510 5511 5514 5518 5522 5526 5531 5535 5539 5543 5548 5552 5556 5561 5564 5568 5572 5576 5579 5583
5562 5553 5544 5534 5526 5518 5510 5504 5497 5490 5487 5498 5495 5488 5482 5482 5482 5482 5482 5483 5487 5491 5494 5499 5504 5510 5514 5519 5524 5529 5533 5538 5543 5547 5551 5556 5560 5564
5536 5526 5517 5507 5500 5492 5484 5478 5472 5466 5461 5464 5470 5463 5458 5456 5456 5457 5457 5458 5461 5465 5468 5473 5478 5484 5490 5495 5500 5505 5511 5516 5521 5526 5531 5536 5540 5543
5510 5500 5492 5483 5476 5469 5462 5456 5451 5446 5441 5439 5443 5441 5437 5434 5433 5435 5435 5436 5438 5441 5444 5449 5454 5460 5466 5472 5477 5483 5489 5495 5500 5505 5509 5515 5519 5524
5485 5477 5469 5461 5454 5448 5442 5437 5432 5428 5423 5420 5421 5420 5418 5416 5413 5415 5415 5416 5418 5420 5423 5428 5432 5437 5443 5450 5456 5462 5467 5472 5478 5483 5489 5494 5499 5504
5465 5456 5449 5442 5436 5430 5425 5420 5415 5411 5407 5403 5402 5401 5400 5397 5396 5396 5396 5397 5399 5401 5404 5409 5412 5417 5422 5428 5434 5440 5446 5451 5457 5462 5468 5473 5479 5484
5446 5438 5431 5425 5419 5414 5408 5404 5399 5395 5391 5388 5386 5384 5383 5381 5380 5379 5379 5380 5383 5386 5386 5390 5393 5398 5403 5409 5415 5420 5425 5430 5436 5442 5447 5453 5459 5464
5427 5421 5415 5409 5403 5398 5393 5389 5385 5380 5376 5373 5370 5369 5367 5366 5364 5364 5363 5364 5366 5367 5369 5373 5377 5381 5385 5390 5395 5401 5406 5411 5417 5422 5427 5433 5439 5444
5412 5405 5399 5394 5389 5383 5379 5375 5372 5367 5362 5358 5356 5354 5353 5351 5350 5349 5349 5349 5351 5353 5355 5358 5361 5365 5368 5373 5378 5383 5387 5393 5398 5403 5408 5414 5419 5424
5398 5391 5385 5380 5375 5370 5366 5362 5359 5355 5349 5345 5342 5340 5339 5337 5336 5335 5335 5335 5337 5339 5341 5343 5346 5349 5353 5357 5361 5365 5370 5375 5380 5385 5390 5395 5400 5404
5385 5379 5373 5367 5362 5357 5352 5349 5345 5341 5336 5333 5330 5328 5326 5325 5323 5322 5322 5322 5323 5326 5328 5330 5331 5333 5337 5342 5345 5349 5353 5358 5362 5367 5371 5376 5380 5384
5372 5367 5361 5355 5350 5345 5340 5336 5332 5327 5323 5321 5318 5316 5314 5313 5311 5310 5310 5310 5310 5312 5314 5315 5317 5319 5322 5326 5329 5333 5336 5341 5345 5349 5353 5357 5361 5366
5359 5354 5349 5343 5338 5333 5328 5323 5319 5315 5311 5309 5307 5305 5303 5301 5300 5298 5298 5297 5298 5298 5299 5301 5303 5305 5307 5310 5313 5317 5320 5323 5327 5332 5336 5339 5343 5347
5347 5342 5336 5331 5326 5321 5316 5311 5307 5303 5300 5297 5295 5293 5291 5289 5288 5287 5286 5285 5285 5285 5285 5286 5288 5290 5292 5294 5297 5300 5303 5307 5310 5314 5318 5321 5325 5329
5337 5331 5325 5319 5314 5309 5305 5301 5296 5292 5288 5285 5283 5281 5278 5277 5275 5274 5273 5273 5272 5273 5273 5273 5274 5275 5277 5279 5281 5284 5287 5291 5294 5297 5300 5304 5307 5311
5326 5321 5315 5310 5304 5299 5294 5290 5285 5281 5277 5274 5271 5268 5266 5263 5262 5261 5260 5260 5260 5260 5260 5260 5260 5261 5263 5264 5267 5269 5272 5275 5277 5280 5283 5287 5290 5294
5315 5310 5304 5299 5294 5289 5284 5280 5275 5271 5267 5263 5259 5256 5253 5251 5249 5248 5247 5247 5247 5247 5247 5248 5248 5248 5250 5251 5254 5255 5257 5259 5261 5263 5266 5269 5273 5276
5305 5300 5294 5289 5284 5279 5274 5269 5265 5260 5256 5252 5248 5245 5242 5240 5238 5237 5236 5235 5235 5235 5235 5235 5235 5236 5237 5239 5240 5240 5242 5243 5245 5248 5250 5252 5256 5259
5296 5290 5285 5279 5274 5269 5264 5259 5254 5249 5245 5241 5238 5235 5232 5229 5227 5226 5224 5223 5222 5222 5222 5222 5222 5222 5223 5224 5225 5227 5227 5228 5230 5232 5233 5235 5238 5241
5287 5281 5276 5270 5265 5260 5254 5249 5244 5240 5235 5231 5228 5224 5222 5219 5217 5215 5213 5211 5210 5209 5209 5209 5209 5209 5209 5210 5212 5213 5212 5212 5213 5215 5217 5219 5222 5224
5279 5273 5268 5262 5257 5251 5246 5241 5236 5231 5227 5222 5219 5215 5212 5209 5207 5205 5202 5200 5199 5198 5197 5196 5196 5196 5196 5197 5197 5198 5198 5198 5198 5199 5201 5203 5205 5208
5271 5266 5260 5255 5249 5244 5238 5233 5228 5223 5219 5214 5210 5207 5203 5200 5197 5194 5192 5190 5188 5186 5185 5184 5183 5183 5183 5183 5184 5184 5184 5184 5184 5185 5187 5187 5189 5191